[[{"header":{"parameterUnit":"m.s-1","parameterCategory":1,"la1":30.2991,"la2":30.254,"lo1":-89.0895,"lo2":-89.0444,"dy":0.0017,"dx":0.0017,"nx":28,"ny":28,"refTime":"2024-03-24T03:00:00:Z","depth":0,"parameterNumber":2,"parameterNumberName":"U-component_of_WINDS"},"data":[0,0,0,0,0,0,0,0,0,0,0,0,0,0,0,0,0,0,0,0,0,0,0,0,0,0,0,0,0,0,0,0,0,0,0,0,0,0,0,0,0,0,0,0,0,0,0,0,0,0,0,0,0,0,0,0,0,0,-1.989,-1.9891,0,-1.9919,-1.9919,-1.992,-1.9847,-1.9845,-1.9843,-1.9841,-1.9872,-1.9875,-1.9878,0,0,0,0,0,0,0,0,0,0,0,0,0,-1.9773,-1.9776,-1.989,-1.9891,-1.9891,-1.9919,-1.9919,-1.992,-1.9848,-1.9845,-1.9842,-1.984,-1.9871,-1.9875,-1.9878,0,0,0,0,0,0,0,0,0,0,0,0,0,-1.9815,-1.9776,-1.989,-1.9858,-1.9856,-1.9919,-1.9919,-1.992,-1.9848,-1.9845,-1.9842,-1.9838,-1.987,-1.9874,-1.9879,-1.9975,0,0,-1.9892,-1.9894,0,0,0,0,0,0,0,0,-1.9813,-1.982,-1.9863,-1.9861,-1.9858,-1.9876,-1.9889,-1.9938,-1.9849,-1.9851,-1.9841,-1.9837,-1.9876,-1.988,-1.9893,-1.9976,-1.9977,-1.9893,-1.9895,-1.9897,-1.9898,0,0,0,0,0,0,0,-1.981,-1.9818,-1.9902,-1.9863,-1.986,-1.9843,-1.9845,-1.9898,-1.9883,-1.9851,-1.9846,-1.985,-1.9874,-1.9889,-1.9893,-1.9978,-1.9892,-1.9896,-1.9899,-1.9901,-2.014,-2.0143,0,0,0,0,0,0,-1.9811,-1.9816,-1.9901,-1.9903,-1.9826,-1.9848,-1.985,-1.9874,-1.9882,-1.988,-1.9853,-1.9846,-1.9883,-1.9888,-1.9894,-2.0007,-1.9897,-1.9901,-1.9904,-2.0136,-2.0141,-2.0145,0,0,0,0,0,0,-1.9809,-1.9819,-1.99,-1.9858,-1.9867,-1.9853,-1.988,-1.9876,-1.9891,-1.9883,-1.988,-1.9871,-1.988,-1.9888,-1.9955,-2.0007,-1.9903,-1.9907,-2.0132,-2.0138,-2.0143,-2.0234,0,0,0,0,0,0,-1.9806,-1.9819,-1.9856,-1.9859,-1.9869,-1.996,-1.9884,-1.9879,-1.9898,-1.989,-1.9899,-1.9898,-1.9878,-1.9949,-1.9959,-2.0011,-1.9911,-2.0127,-2.0134,-2.0141,-2.0226,-2.0242,-2.0255,0,0,0,0,0,-1.9802,-1.9881,-1.9858,-1.9868,-1.9915,-1.9963,-1.9969,-1.9945,-1.9903,-1.9939,-1.9934,-1.9897,-1.9999,-1.9956,-1.9967,-2.0022,-2.0124,-2.0132,-2.014,-2.022,-2.0239,-2.0255,0,0,0,0,0,0,-1.9885,-1.9881,-1.9855,-1.9938,-1.9951,-1.9951,-1.9997,-1.9966,-1.9993,-1.9984,-1.9953,-1.9956,-2.0029,-2.0031,-1.9984,-2.0114,-2.0054,-2.0065,-2.0111,-2.0129,-2.0143,-2.0142,-1.9915,0,0,0,0,0,-1.9912,-1.9952,-1.9946,-2.0019,-2.0027,-2.0011,-2.0031,-2.0011,-2.0025,-2.003,-2.003,-2.0045,-2.008,-2.0104,-2.0136,-2.0225,-2.0226,-2.0268,-2.0282,-2.0294,-2.0305,-2.0352,-2.0371,-2.0172,-2.0172,-2.0172,0,0,-1.9971,-1.9973,-2.0,-2.0036,-2.0044,-2.0087,-2.0017,-2.0064,-2.0095,-2.0038,-2.0101,-2.0101,-2.0115,-2.0194,-2.0228,-2.0198,-2.0359,-2.0305,-2.0314,-2.0319,-2.0362,-2.0381,-2.0398,-2.0178,-2.0177,-2.0176,0,0,-2.0098,-2.0104,-2.0165,-2.0174,-2.0187,-2.0175,-2.019,-2.0194,-2.0192,-2.0254,-2.0212,-2.0248,-2.0309,-2.0321,-2.0335,-2.0464,-2.0431,-2.0475,-2.0552,-2.0598,-2.0614,-2.0627,-2.0674,-2.0692,-2.0485,-2.0485,-2.0485,0,-2.017,-2.0231,-2.0201,-2.0251,-2.0268,-2.0216,-2.0278,-2.0288,-2.0312,-2.0325,-2.029,-2.0365,-2.037,-2.0451,-2.0482,-2.0495,-2.0511,-2.0475,-2.0614,-2.0627,-2.064,-2.0684,-2.0702,-2.049,-2.049,-2.0489,-2.0489,0,-2.0318,-2.0361,-2.0409,-2.0431,-2.0453,-2.0509,-2.0488,-2.0513,-2.049,-2.0482,-2.0546,-2.0551,-2.0582,-2.0599,-2.0578,-2.0677,-2.0657,-2.0619,-2.0558,-2.0664,-2.0706,-2.0722,-2.0498,-2.0496,-2.0495,-2.0493,0,0,-2.0502,-2.0505,-2.0523,-2.0533,-2.0541,-2.0574,-2.0627,-2.0657,-2.068,-2.0697,-2.0741,-2.0792,-2.0756,-2.0772,-2.0751,-2.0791,-2.0894,-2.0747,-2.0747,-2.0775,-2.1003,-2.1034,-2.1054,-2.087,-2.0874,-2.0876,-2.1002,0,-2.0629,-2.072,-2.0693,-2.0785,-2.0824,-2.0773,-2.0819,-2.083,-2.0823,-2.0855,-2.0847,-2.0884,-2.0833,-2.0842,-2.0879,-2.0874,-2.0939,-2.0864,-2.0912,-2.0914,-2.0913,-2.1075,-2.1108,-2.1227,-2.1018,-2.1021,-2.1023,0,-2.079,-2.0812,-2.0907,-2.0908,-2.0924,-2.0966,-2.099,-2.1022,-2.1032,-2.1024,-2.104,-2.101,-2.1062,-2.0999,-2.107,-2.1019,-2.1037,-2.1036,-2.104,-2.1046,-2.0977,-2.1087,-2.1265,-2.1283,-2.1048,-2.1046,-2.1044,0,-2.0917,-2.097,-2.1033,-2.1042,-2.1045,-2.1076,-2.1078,-2.1085,-2.1104,-2.1125,-2.1137,-2.1165,-2.118,-2.1202,-2.118,-2.1136,-2.1254,-2.1189,-2.125,-2.1251,-2.1279,-2.1278,-2.1464,-2.1288,-2.1287,-2.1287,-2.1287,0,-2.1063,-2.1124,-2.109,-2.113,-2.1195,-2.1163,-2.1229,-2.1226,-2.1232,-2.127,-2.1227,-2.1263,-2.1231,-2.1265,-2.1247,-2.1309,-2.1316,-2.1311,-2.1306,-2.1316,-2.1317,-2.1329,-2.1321,-2.1292,-2.1291,-2.129,-2.1289,0,-2.1217,-2.1197,-2.1263,-2.1259,-2.1259,-2.1308,-2.1304,-2.1341,-2.1329,-2.1377,-2.1387,-2.1369,-2.1406,-2.1385,-2.1423,-2.1411,-2.1492,-2.1475,-2.1489,-2.1485,-2.1547,-2.1542,-2.1749,-2.1775,-2.158,-2.1582,-2.1583,0,-2.1313,-2.1358,-2.1358,-2.138,-2.1385,-2.1421,-2.1439,-2.1408,-2.143,-2.1444,-2.1478,-2.1511,-2.1536,-2.1597,-2.1588,-2.1617,-2.1601,-2.1671,-2.1605,-2.1614,-2.1604,-2.1602,-2.1607,-2.1686,-2.1688,-2.169,-2.1691,0,-2.1485,-2.1472,-2.1501,-2.1526,-2.1549,-2.1567,-2.1582,-2.1602,-2.1571,-2.1598,-2.1634,-2.1653,-2.1691,-2.1725,-2.1748,-2.1751,-2.1717,-2.1711,-2.1727,-2.1739,-2.1746,-2.1744,-2.1527,-2.1708,-2.1706,-2.1705,-2.1704,-2.1703,-2.1614,-2.1652,-2.1657,-2.169,-2.1697,-2.1711,-2.1745,-2.1736,-2.1766,-2.1794,-2.1774,-2.1817,-2.1824,-2.1853,-2.1859,-2.1893,-2.1865,-2.1887,-2.1893,-2.19,-2.1909,-2.1739,-2.1897,-2.1896,-2.1896,-2.1895,-2.1895,0,-2.1786,-2.1786,-2.1816,-2.1837,-2.1863,-2.1826,-2.184,-2.1864,-2.1902,-2.1912,-2.1936,-2.1978,-2.2009,-2.2001,-2.2029,-2.2058,-2.2043,-2.2066,-2.2065,-2.2066,-2.1932,-2.1916,-2.2078,-2.2078,-2.2078,-2.2078,-2.2078,-2.2078,-2.1878,-2.194,-2.1927,-2.1991,-2.1991,-2.2032,-2.2043,-2.2056,-2.2063,-2.2111,-2.2137,-2.2131,-2.2133,-2.216,-2.2187,-2.2184,-2.2197,-2.2227,-2.2219,-2.2094,-2.2076,-2.2059,-2.2044,-2.223,-2.223,-2.235,-2.2351,-2.2352]},{"header":{"parameterUnit":"m.s-1","parameterCategory":1,"la1":30.2991,"la2":30.254,"lo1":-89.0895,"lo2":-89.0444,"dy":0.0017,"dx":0.0017,"nx":28,"ny":28,"refTime":"2024-03-24T03:00:00:Z","depth":0,"parameterNumber":3,"parameterNumberName":"V-component_of_WINDS"},"data":[0,0,0,0,0,0,0,0,0,0,0,0,0,0,0,0,0,0,0,0,0,0,0,0,0,0,0,0,0,0,0,0,0,0,0,0,0,0,0,0,0,0,0,0,0,0,0,0,0,0,0,0,0,0,0,0,0,0,-4.8354,-4.8356,0,-4.847,-4.8471,-4.8472,-4.8416,-4.8413,-4.841,-4.8407,-4.8521,-4.8526,-4.8532,0,0,0,0,0,0,0,0,0,0,0,0,0,-4.808,-4.8085,-4.8354,-4.8356,-4.8357,-4.8469,-4.8471,-4.8473,-4.8416,-4.8412,-4.8409,-4.8405,-4.8519,-4.8526,-4.8533,0,0,0,0,0,0,0,0,0,0,0,0,0,-4.8197,-4.8087,-4.8354,-4.8343,-4.8343,-4.8469,-4.8471,-4.8473,-4.8417,-4.8412,-4.8408,-4.8404,-4.8517,-4.8525,-4.8534,-4.8677,0,0,-4.856,-4.8564,0,0,0,0,0,0,0,0,-4.8191,-4.8207,-4.8343,-4.8344,-4.8344,-4.8424,-4.8416,-4.8541,-4.8418,-4.8389,-4.8407,-4.8402,-4.8492,-4.8502,-4.8534,-4.8682,-4.8687,-4.8561,-4.8566,-4.857,-4.8572,0,0,0,0,0,0,0,-4.8183,-4.8202,-4.84,-4.8345,-4.8346,-4.833,-4.8342,-4.8439,-4.8464,-4.8391,-4.8387,-4.8402,-4.8491,-4.8525,-4.8536,-4.8688,-4.8561,-4.8568,-4.8574,-4.8577,-4.8958,-4.8963,0,0,0,0,0,0,-4.8176,-4.8196,-4.8396,-4.8403,-4.8255,-4.8339,-4.8352,-4.8403,-4.8462,-4.8467,-4.8405,-4.8399,-4.8513,-4.8526,-4.854,-4.871,-4.857,-4.8578,-4.8583,-4.8953,-4.8959,-4.8965,0,0,0,0,0,0,-4.817,-4.8194,-4.8391,-4.8299,-4.8322,-4.8348,-4.8406,-4.8407,-4.8441,-4.8474,-4.8477,-4.8436,-4.851,-4.8527,-4.8643,-4.8714,-4.8582,-4.859,-4.8948,-4.8955,-4.8962,-4.9054,0,0,0,0,0,0,-4.8162,-4.8192,-4.8248,-4.83,-4.8328,-4.8495,-4.841,-4.8413,-4.8457,-4.8449,-4.8503,-4.8508,-4.8507,-4.863,-4.8652,-4.8723,-4.8597,-4.8941,-4.8951,-4.896,-4.9045,-4.9063,-4.9079,0,0,0,0,0,-4.8153,-4.8269,-4.8252,-4.8276,-4.8398,-4.8499,-4.8514,-4.8513,-4.8463,-4.8519,-4.8539,-4.8506,-4.8702,-4.8643,-4.8666,-4.8741,-4.8937,-4.8948,-4.8959,-4.9037,-4.906,-4.9079,0,0,0,0,0,0,-4.8224,-4.8276,-4.8257,-4.8394,-4.8443,-4.8489,-4.856,-4.8537,-4.86,-4.859,-4.8584,-4.8597,-4.8717,-4.874,-4.8673,-4.8882,-4.8812,-4.8828,-4.8863,-4.8885,-4.8902,-4.8894,-4.8604,0,0,0,0,0,-4.8255,-4.8334,-4.8375,-4.8491,-4.8517,-4.8534,-4.8578,-4.8572,-4.8622,-4.8642,-4.8671,-4.8719,-4.8791,-4.8839,-4.8907,-4.9047,-4.9057,-4.911,-4.9128,-4.9142,-4.9156,-4.9231,-4.9254,-4.9001,-4.9001,-4.9,0,0,-4.8321,-4.8359,-4.8409,-4.8507,-4.8544,-4.8624,-4.8552,-4.864,-4.8699,-4.8655,-4.8766,-4.8789,-4.8842,-4.897,-4.9028,-4.8994,-4.9228,-4.9156,-4.9167,-4.9174,-4.9244,-4.9268,-4.929,-4.9008,-4.9007,-4.9006,0,0,-4.8483,-4.852,-4.8621,-4.866,-4.8718,-4.8728,-4.8752,-4.8803,-4.8816,-4.8928,-4.8896,-4.8965,-4.909,-4.9129,-4.9165,-4.934,-4.9312,-4.9362,-4.9454,-4.9526,-4.9546,-4.9564,-4.9626,-4.9648,-4.9376,-4.9376,-4.9377,0,-4.8557,-4.8679,-4.8675,-4.8767,-4.8809,-4.8774,-4.8875,-4.8912,-4.8989,-4.9018,-4.8979,-4.9134,-4.9168,-4.9304,-4.9347,-4.9377,-4.9403,-4.9357,-4.9544,-4.9562,-4.9578,-4.9637,-4.966,-4.9382,-4.9381,-4.9381,-4.938,0,-4.8767,-4.8852,-4.8926,-4.9002,-4.9053,-4.9149,-4.9158,-4.921,-4.92,-4.9214,-4.9327,-4.9365,-4.9441,-4.9472,-4.9462,-4.9607,-4.9584,-4.9544,-4.9473,-4.9608,-4.9663,-4.9686,-4.939,-4.9388,-4.9387,-4.9385,0,0,-4.8978,-4.9051,-4.9078,-4.9112,-4.9172,-4.9236,-4.9329,-4.9404,-4.9448,-4.9501,-4.9578,-4.9684,-4.9648,-4.9689,-4.9682,-4.9746,-4.9882,-4.9699,-4.97,-4.9731,-5.0042,-5.0072,-5.0098,-4.9863,-4.9867,-4.9871,-5.0038,0,-4.9144,-4.9309,-4.9308,-4.9459,-4.9537,-4.9503,-4.9584,-4.9628,-4.9644,-4.971,-4.9725,-4.9801,-4.9747,-4.9772,-4.9833,-4.9852,-4.9944,-4.984,-4.9933,-4.9937,-4.9922,-5.0127,-5.0159,-5.0315,-5.0059,-5.0063,-5.0065,0,-4.936,-4.9422,-4.9582,-4.963,-4.9662,-4.9735,-4.9802,-4.9867,-4.9915,-4.9922,-4.9967,-4.9951,-5.0043,-4.9969,-5.0096,-5.0025,-5.0063,-5.0077,-5.0083,-5.0092,-5.001,-5.0142,-5.0365,-5.0388,-5.0099,-5.0097,-5.0094,0,-4.9498,-4.962,-4.9732,-4.9761,-4.982,-4.9872,-4.9899,-4.9943,-4.9988,-5.0046,-5.0075,-5.0143,-5.018,-5.0232,-5.0233,-5.0179,-5.0361,-5.0287,-5.0367,-5.0368,-5.0408,-5.0405,-5.064,-5.0432,-5.0431,-5.0431,-5.043,0,-4.9683,-4.9782,-4.9794,-4.9863,-4.9972,-4.9969,-5.0076,-5.0097,-5.0137,-5.0208,-5.0182,-5.0249,-5.0247,-5.0314,-5.0315,-5.0419,-5.0436,-5.0442,-5.0442,-5.0445,-5.0444,-5.047,-5.0459,-5.0437,-5.0436,-5.0435,-5.0433,0,-4.9856,-4.9868,-4.9987,-5.0033,-5.0047,-5.0125,-5.0164,-5.0228,-5.024,-5.033,-5.035,-5.0369,-5.0446,-5.0453,-5.0542,-5.0543,-5.0669,-5.0656,-5.0653,-5.0651,-5.0731,-5.0724,-5.0991,-5.1026,-5.0795,-5.0797,-5.0799,0,-4.9974,-5.005,-5.0104,-5.015,-5.018,-5.0254,-5.03,-5.0299,-5.0347,-5.0407,-5.0464,-5.0539,-5.0599,-5.0724,-5.0744,-5.0812,-5.0801,-5.089,-5.0811,-5.0812,-5.0802,-5.0798,-5.0805,-5.0905,-5.0908,-5.091,-5.0912,0,-5.0182,-5.0184,-5.0252,-5.0322,-5.0377,-5.0431,-5.0482,-5.052,-5.0525,-5.058,-5.0659,-5.0706,-5.0797,-5.0872,-5.0938,-5.0963,-5.0938,-5.0936,-5.0958,-5.0963,-5.0958,-5.0962,-5.0695,-5.093,-5.0928,-5.0927,-5.0926,-5.0925,-5.0331,-5.0396,-5.0445,-5.052,-5.0558,-5.0606,-5.0669,-5.0689,-5.0756,-5.0831,-5.0825,-5.0913,-5.0958,-5.1044,-5.1074,-5.1142,-5.1111,-5.1144,-5.1152,-5.116,-5.1168,-5.0947,-5.1153,-5.1153,-5.1152,-5.1152,-5.1152,0,-5.0538,-5.0567,-5.0637,-5.0709,-5.0768,-5.074,-5.0794,-5.0845,-5.0923,-5.0968,-5.1028,-5.1118,-5.119,-5.1216,-5.1285,-5.1334,-5.1324,-5.1352,-5.1349,-5.1355,-5.1191,-5.1165,-5.1359,-5.1359,-5.1359,-5.1359,-5.1359,-5.1359,-5.0652,-5.0761,-5.0769,-5.0895,-5.0923,-5.101,-5.1044,-5.1087,-5.1122,-5.1225,-5.1285,-5.1302,-5.1339,-5.141,-5.1474,-5.1479,-5.1506,-5.1539,-5.154,-5.1387,-5.1366,-5.1346,-5.1322,-5.1545,-5.1545,-5.1697,-5.1698,-5.17]}]]